Meteo pe oră la Bolshie Novoselki

Astăzi, 18 Mai, Marţi

Timp Temperatura Precipitaţii Vânt Presiune Umiditate
00:00 +13°C° 0.1 mm 2 m/s 732 mmHg 96%
01:00 +13°C° 0.1 mm 2 m/s 732 mmHg 96%
02:00 +13°C° 0.1 mm 1 m/s 732 mmHg 96%
03:00 +13°C° 0.2 mm 1 m/s 732 mmHg 96%
04:00 +12°C° 0.2 mm 1 m/s 731 mmHg 97%
05:00 +12°C° 0.2 mm 2 m/s 731 mmHg 97%
06:00 +13°C° 0.1 mm 1 m/s 731 mmHg 97%
07:00 +13°C° 0.1 mm 1 m/s 732 mmHg 96%
08:00 +12°C° 0.1 mm 0 m/s 732 mmHg 96%
09:00 +14°C° 0.1 mm 1 m/s 732 mmHg 93%
10:00 +14°C° 0.1 mm 1 m/s 732 mmHg 91%
11:00 +15°C° 0.1 mm 1 m/s 732 mmHg 88%
12:00 +15°C° 0.1 mm 2 m/s 732 mmHg 86%
13:00 +16°C° 0.1 mm 2 m/s 732 mmHg 84%
14:00 +16°C° 0.1 mm 2 m/s 732 mmHg 83%
15:00 +16°C° 0 mm 3 m/s 732 mmHg 84%
16:00 +16°C° 0 mm 3 m/s 732 mmHg 85%
17:00 +14°C° 0 mm 3 m/s 732 mmHg 86%
18:00 +14°C° 0.1 mm 3 m/s 732 mmHg 89%
19:00 +13°C° 0.1 mm 4 m/s 732 mmHg 91%
20:00 +12°C° 0.1 mm 4 m/s 732 mmHg 94%
21:00 +11°C° 0.2 mm 4 m/s 732 mmHg 95%
22:00 +11°C° 0.2 mm 3 m/s 732 mmHg 95%
23:00 +10°C° 0.2 mm 3 m/s 732 mmHg 96%

Mâine, 19 Mai, Miercuri

Timp Temperatura Precipitaţii Vânt Presiune Umiditate
00:00 +10°C° 0.8 mm 3 m/s 732 mmHg 96%
01:00 +10°C° 0.8 mm 3 m/s 732 mmHg 97%
02:00 +10°C° 0.8 mm 3 m/s 732 mmHg 97%
03:00 +10°C° 0.9 mm 3 m/s 732 mmHg 97%
04:00 +10°C° 0.9 mm 3 m/s 732 mmHg 96%
05:00 +10°C° 0.9 mm 3 m/s 732 mmHg 96%
06:00 +10°C° 0.5 mm 3 m/s 732 mmHg 95%
07:00 +9°C° 0.5 mm 3 m/s 733 mmHg 95%
08:00 +9°C° 0.5 mm 3 m/s 733 mmHg 94%
09:00 +10°C° 0.2 mm 4 m/s 733 mmHg 94%
10:00 +10°C° 0.2 mm 4 m/s 734 mmHg 94%
11:00 +10°C° 0.2 mm 4 m/s 734 mmHg 93%
12:00 +10°C° 0.5 mm 4 m/s 734 mmHg 93%
13:00 +10°C° 0.5 mm 4 m/s 735 mmHg 93%
14:00 +10°C° 0.5 mm 4 m/s 735 mmHg 93%
15:00 +10°C° 0.5 mm 4 m/s 735 mmHg 92%
16:00 +10°C° 0.5 mm 4 m/s 735 mmHg 91%
17:00 +10°C° 0.5 mm 4 m/s 736 mmHg 90%
18:00 +10°C° 0.2 mm 4 m/s 736 mmHg 91%
19:00 +10°C° 0.2 mm 3 m/s 736 mmHg 91%
20:00 +10°C° 0.2 mm 2 m/s 736 mmHg 92%
21:00 +9°C° 0 mm 2 m/s 736 mmHg 92%
22:00 +9°C° 0 mm 3 m/s 736 mmHg 92%
23:00 +8°C° 0 mm 3 m/s 736 mmHg 92%

Poimâine, 20 Mai, Joi

Timp Temperatura Precipitaţii Vânt Presiune Umiditate
00:00 +8°C° 0 mm 3 m/s 736 mmHg 93%
01:00 +8°C° 0 mm 3 m/s 736 mmHg 93%
02:00 +8°C° 0 mm 3 m/s 736 mmHg 94%
03:00 +9°C° 0 mm 3 m/s 736 mmHg 94%
04:00 +9°C° 0 mm 3 m/s 736 mmHg 95%
05:00 +9°C° 0 mm 3 m/s 736 mmHg 95%
06:00 +8°C° 0.1 mm 4 m/s 736 mmHg 93%
07:00 +8°C° 0.1 mm 4 m/s 736 mmHg 90%
08:00 +9°C° 0.1 mm 5 m/s 736 mmHg 88%
09:00 +9°C° 0.2 mm 5 m/s 736 mmHg 85%
10:00 +9°C° 0.2 mm 5 m/s 736 mmHg 82%
11:00 +10°C° 0.2 mm 6 m/s 737 mmHg 79%
12:00 +10°C° 0.2 mm 5 m/s 737 mmHg 81%
13:00 +10°C° 0.2 mm 5 m/s 737 mmHg 83%
14:00 +10°C° 0.2 mm 5 m/s 737 mmHg 85%
15:00 +10°C° 0.2 mm 5 m/s 737 mmHg 85%
16:00 +10°C° 0.2 mm 5 m/s 737 mmHg 84%
17:00 +10°C° 0.2 mm 6 m/s 737 mmHg 84%
18:00 +10°C° 0 mm 5 m/s 737 mmHg 84%
19:00 +10°C° 0 mm 5 m/s 737 mmHg 84%
20:00 +9°C° 0 mm 5 m/s 738 mmHg 85%
21:00 +9°C° 0 mm 5 m/s 738 mmHg 85%
22:00 +9°C° 0 mm 5 m/s 738 mmHg 85%
23:00 +9°C° 0 mm 6 m/s 739 mmHg 86%

21 Mai, Vineri

Timp Temperatura Precipitaţii Vânt Presiune Umiditate
00:00 +8°C° 0 mm 5 m/s 739 mmHg 88%
01:00 +7°C° 0 mm 5 m/s 739 mmHg 90%
02:00 +6°C° 0 mm 5 m/s 740 mmHg 92%
03:00 +6°C° 0 mm 4 m/s 740 mmHg 93%
04:00 +5°C° 0 mm 4 m/s 740 mmHg 94%
05:00 +4°C° 0 mm 4 m/s 740 mmHg 94%
06:00 +6°C° 0 mm 4 m/s 741 mmHg 87%
07:00 +7°C° 0 mm 4 m/s 741 mmHg 80%
08:00 +8°C° 0 mm 5 m/s 741 mmHg 72%
09:00 +9°C° 0 mm 5 m/s 741 mmHg 67%
10:00 +12°C° 0 mm 5 m/s 742 mmHg 61%
11:00 +13°C° 0 mm 5 m/s 742 mmHg 56%
12:00 +14°C° 0 mm 5 m/s 742 mmHg 54%
13:00 +14°C° 0 mm 5 m/s 742 mmHg 52%
14:00 +15°C° 0 mm 5 m/s 742 mmHg 50%
15:00 +15°C° 0 mm 4 m/s 742 mmHg 52%
16:00 +15°C° 0 mm 4 m/s 742 mmHg 54%
17:00 +16°C° 0 mm 3 m/s 742 mmHg 56%
18:00 +13°C° 0 mm 3 m/s 742 mmHg 63%
19:00 +12°C° 0 mm 2 m/s 743 mmHg 71%
20:00 +9°C° 0 mm 2 m/s 743 mmHg 78%
21:00 +8°C° 0 mm 2 m/s 743 mmHg 80%
22:00 +9°C° 0 mm 1 m/s 743 mmHg 81%
23:00 +8°C° 0 mm 1 m/s 743 mmHg 83%

22 Mai, Sâmbătă

Timp Temperatura Precipitaţii Vânt Presiune Umiditate
00:00 +8°C° 0 mm 1 m/s 743 mmHg 83%
01:00 +7°C° 0 mm 1 m/s 743 mmHg 84%
02:00 +7°C° 0 mm 1 m/s 743 mmHg 85%
03:00 +7°C° 0 mm 1 m/s 743 mmHg 85%
04:00 +7°C° 0 mm 1 m/s 743 mmHg 85%
05:00 +6°C° 0 mm 2 m/s 743 mmHg 84%
06:00 +8°C° 0 mm 2 m/s 743 mmHg 79%
07:00 +10°C° 0 mm 3 m/s 743 mmHg 73%
08:00 +12°C° 0 mm 3 m/s 743 mmHg 68%
09:00 +13°C° 0 mm 4 m/s 743 mmHg 64%
10:00 +14°C° 0 mm 4 m/s 743 mmHg 60%
11:00 +15°C° 0 mm 4 m/s 743 mmHg 56%
12:00 +17°C° 0 mm 4 m/s 743 mmHg 56%
13:00 +17°C° 0 mm 4 m/s 743 mmHg 56%
14:00 +17°C° 0 mm 4 m/s 742 mmHg 55%
15:00 +18°C° 0 mm 4 m/s 742 mmHg 57%
16:00 +18°C° 0 mm 4 m/s 742 mmHg 58%
17:00 +18°C° 0 mm 4 m/s 741 mmHg 60%
18:00 +16°C° 0 mm 3 m/s 741 mmHg 66%
19:00 +14°C° 0 mm 3 m/s 741 mmHg 72%
20:00 +12°C° 0 mm 3 m/s 741 mmHg 78%
21:00 +12°C° 0 mm 3 m/s 741 mmHg 77%
22:00 +11°C° 0 mm 3 m/s 741 mmHg 77%
23:00 +10°C° 0 mm 3 m/s 741 mmHg 77%

23 Mai, Duminică

Timp Temperatura Precipitaţii Vânt Presiune Umiditate
00:00 +10°C° 0 mm 3 m/s 740 mmHg 77%
01:00 +10°C° 0 mm 3 m/s 740 mmHg 76%
02:00 +10°C° 0 mm 3 m/s 740 mmHg 76%
03:00 +11°C° 0 mm 3 m/s 739 mmHg 78%
04:00 +11°C° 0 mm 3 m/s 739 mmHg 79%
05:00 +11°C° 0 mm 3 m/s 738 mmHg 80%
06:00 +11°C° 0.1 mm 3 m/s 738 mmHg 82%
07:00 +12°C° 0.1 mm 4 m/s 738 mmHg 84%
08:00 +13°C° 0.1 mm 4 m/s 738 mmHg 85%
09:00 +13°C° 0.7 mm 5 m/s 738 mmHg 88%
10:00 +12°C° 0.7 mm 5 m/s 738 mmHg 91%
11:00 +12°C° 0.7 mm 5 m/s 737 mmHg 94%
12:00 +13°C° 0.3 mm 6 m/s 738 mmHg 85%
13:00 +14°C° 0.3 mm 6 m/s 738 mmHg 76%
14:00 +15°C° 0.3 mm 7 m/s 739 mmHg 67%
15:00 +15°C° 0.2 mm 6 m/s 739 mmHg 68%
16:00 +15°C° 0.2 mm 6 m/s 739 mmHg 69%
17:00 +15°C° 0.2 mm 6 m/s 739 mmHg 70%
18:00 +14°C° 0.1 mm 5 m/s 740 mmHg 75%
19:00 +12°C° 0.1 mm 4 m/s 740 mmHg 80%
20:00 +11°C° 0.1 mm 3 m/s 740 mmHg 85%
21:00 +10°C° 0 mm 3 m/s 740 mmHg 87%
22:00 +9°C° 0 mm 3 m/s 741 mmHg 90%
23:00 +8°C° 0 mm 3 m/s 741 mmHg 92%
Arată mai mult

Formular de consimțământ

Meteoprog și furnizorii noștri de servicii pot stoca și accesa date personale, precum cookies, identificatori de dispozitiv sau alte tehnologii similare pe dispozitivul dumneavoastră și procesa astfel de date pentru a personaliza conținutul și reclamele, dar și pentru a oferi caracteristici de social media și pentru a analiza traficul.

  • Stocarea și/sau accesarea informațiilor pe dispozitivul dumneavoastră

    Cookies, identificatori de dispozitiv sau alte informații pot fi stocate sau accesate pe dispozitiv în scopurile indicate mai sus.

  • Reclame și conținut personalizat, evaluarea reclamelor și a conținutului, informații despre audiențe și dezvoltarea produselor

    Reclamele și conținutul pot fi personalizate pe baza unui profil. Pot fi adăugate date suplimentare pentru a personaliza mai bine reclamele și conținutul. Performanța reclamelor și conținutului poate fi măsurată. Pot fi obținute informații despre utilizatorii care au văzut reclamele și conținutul. Aceste date pot fi utilizate pentru a dezvolta sau îmbunătăți experiența utilizatorilor, sistemele și software-ul.

Dând clic pe ‘Sunt de acord’, permiteți utilizarea cookie-urilor menționate, a identificatorilor de dispozitiv, balizelor web sau altor tehnologii similare. Setările pot fi modificate din browser-ul dispozitivului dumneavoastră.

În anumite scopuri, interesele legitime pot prima asupra consimțământului. Puteți citi mai multe informații în acest sens în Politica privind Confidențialitatea Datelor și Cookie.